Location: L�Ave Maria
(50.7161°N, 1.5911°E)
Time: 23:37:11
(UTC+00:00)

BREEZE-M DEB (TANK) - Pass Details

Date: 10 July 2020
Orbit: 330 x 16284 km, 49.4° (Epoch: 14 August)

Event Time Altitude Azimuth Distance (km) Brightness Sun altitude
Exits shadow 23:06:16 16° 224° (SW) 1,445 4.1 -16.3°
Maximum altitude 23:08:53 53° 149° (SSE) 978 3.2 -16.4°
Drops below altitude 10° 23:18:29 10° 76° (ENE) 4,948 7.2 -16.7°
Sets 23:26:02 0° 74° (ENE) 7,989 8.3 -16.8°
